This is the latest recevied weather packets stored in our database for station/object KC3UTO. If no packets are shown the sender has not sent any weather packets the latest 10 day(s).
| Time | Temp. | Humidity | Pressure | Rain* | Wind** | Luminosity | Snow |
|---|---|---|---|---|---|---|---|
| 1777760777 | 13.33° C | 34% | 1010.5 hPa | 0 mm | - | 74 W/m² | - |
| 1777760472 | 13.33° C | 33% | 1010.6 hPa | 0 mm | - | 66 W/m² | - |
| 1777760168 | 13.33° C | 33% | 1010.4 hPa | 0 mm | - | 59 W/m² | - |
| 1777759866 | 13.33° C | 33% | 1010.4 hPa | 0 mm | - | 69 W/m² | - |
| 1777759561 | 13.33° C | 33% | 1010.4 hPa | 0 mm | - | 77 W/m² | - |
| 1777759258 | 13.33° C | 34% | 1010.4 hPa | 0 mm | - | 72 W/m² | - |
| 1777758955 | 13.89° C | 33% | 1010.3 hPa | 0 mm | - | 69 W/m² | - |
| 1777758652 | 13.89° C | 33% | 1010.4 hPa | 0 mm | - | 69 W/m² | - |
| 1777758349 | 13.89° C | 32% | 1010.3 hPa | 0 mm | - | 88 W/m² | - |
| 1777758047 | 13.89° C | 32% | 1010.4 hPa | 0 mm | - | 100 W/m² | - |
| 1777757743 | 13.89° C | 32% | 1010.2 hPa | 0 mm | - | 148 W/m² | - |
| 1777757441 | 13.89° C | 32% | 1010.3 hPa | 0 mm | - | 91 W/m² | - |
| 1777757140 | 13.89° C | 32% | 1010.2 hPa | 0 mm | - | 87 W/m² | - |
| 1777756837 | 14.44° C | 32% | 1010.2 hPa | 0 mm | - | 91 W/m² | - |
| 1777756532 | 14.44° C | 33% | 1010.1 hPa | 0 mm | - | 145 W/m² | - |
| 1777756230 | 13.89° C | 33% | 1010 hPa | 0 mm | - | 106 W/m² | - |
| 1777755927 | 14.44° C | 33% | 1010.1 hPa | 0 mm | - | 142 W/m² | - |
| 1777755624 | 13.89° C | 33% | 1010 hPa | 0 mm | - | 189 W/m² | - |
| 1777755321 | 13.89° C | 33% | 1009.7 hPa | 0 mm | - | 167 W/m² | - |
| 1777755017 | 14.44° C | 35% | 1009.9 hPa | 0 mm | - | 147 W/m² | - |
| 1777754714 | 13.89° C | 34% | 1009.8 hPa | 0 mm | - | 127 W/m² | - |
| 1777754413 | 14.44° C | 33% | 1009.9 hPa | 0 mm | - | 132 W/m² | - |
| 1777754109 | 14.44° C | 33% | 1010 hPa | 0 mm | - | 197 W/m² | - |
| 1777753806 | 13.89° C | 34% | 1010.2 hPa | 0 mm | - | 188 W/m² | - |
| 1777753502 | 15° C | 33% | 1010.2 hPa | 0 mm | - | 149 W/m² | - |
* Rain latest hour (hover to see other rain measurements)
** Current wind speed in m/s (hover to see current wind gust speed)